Location: Unspecified
(42.3650°N, 71.1030°W)
Time: 12:27:28
(UTC+00:00)

Courier 1B - Pass Details

Date: 02 July 2024
Orbit: 962 x 1209 km, 28.3° (Epoch: 25 July)

Event Time Altitude Azimuth Distance (km) Brightness Sun altitude
Rises 03:31:09 0° 247° (WSW) 3,645 10.5 -22.2°
Reaches altitude 10° 03:34:17 10° 233° (SW) 2,717 9.6 -22.4°
Enters shadow 03:35:30 14° 225° (SW) 2,414 9.3 -22.5°
Maximum altitude 03:39:20 24° 182° (S) 1,950 - -22.7°
Drops below altitude 10° 03:44:33 10° 132° (SE) 2,820 - -23.0°
Sets 03:47:52 0° 119° (ESE) 3,817 - -23.1°
